Regional Weather Roundup
Issued by NWS Northern Indiana

Home | Current Version | Previous Version | Text Only | Print | Product List | Glossary Off
Versions: 1 2 3 4 5 6 7 8 9 10 11 12 13 14 15 16 17 18 19 20 21 22 23 24 25 26 27 28 29 30 31 32 33 34 35 36 37 38 39 40 41 42 43 44 45 46 47 48 49 50

000
ASUS43 KIWX 171500
RWRIWX

KIWX WEATHER ROUNDUP
NATIONAL WEATHER SERVICE NORTHERN INDIANA
1000 AM EST TUE JAN 17 2017

NOTE: "FAIR" INDICATES FEW OR NO CLOUDS BELOW 12,000 FEET WITH NO
SIGNIFICANT WEATHER AND/OR OBSTRUCTIONS TO VISIBILITY.

* THESE STATIONS ARE NOT UNDER NWS QUALITY CONTROL. THEY ALSO MAY NOT
  REPORT WEATHER SUCH AS PRECIPITATION OR FOG.

INZ001>027-171600-
NORTHERN INDIANA

CITY           SKY/WX    TMP DP  RH WIND       PRES   REMARKS
GARY*          CLOUDY    41  39  93 W12G23    29.85R
KNOX*          CLOUDY    41  34  75 W14G21    29.84R
SOUTH BEND     FOG       40  40 100 SW13      29.83R VSB 1/4
GOSHEN         CLOUDY    44  41  89 W16       29.81R
FORT WAYNE     PTSUNNY   48  45  89 W17       29.83R

$$
INZ028>050-171600-
CENTRAL INDIANA

CITY           SKY/WX    TMP DP  RH WIND       PRES   REMARKS
LAFAYETTE      CLOUDY    44  43  96 W13       29.89R
KOKOMO*        CLOUDY    48  45  89 W16G23    29.88R
MUNCIE*        CLOUDY    52  47  83 W16G25    29.86R
INDIANAPOLIS   CLOUDY    50  46  86 W13       29.90R

$$
MIZ043>046-050>051-056>058-064>065-071>073-077>080-171600-
SOUTHWEST LOWER MICHIGAN

CITY           SKY/WX    TMP DP  RH WIND       PRES   REMARKS
BATTLE CREEK   FOG       42  42 100 SW5       29.76R VSB 3/4
BENTON HARBOR  FOG       39  37  92 SW16      29.81R VSB 1
COLDWATER*     CLOUDY    47  47 100 SW14      29.76R FOG
HILLSDALE*     FOG       37  37 100 S5        29.75R VSB<1/4
HOLLAND        CLOUDY    37  35  92 E5        29.75R FOG
GRAND RAPIDS   CLOUDY    34  33  96 E8        29.76S FOG     WCI  27
KALAMAZOO      FOG       44  42  93 W13       29.77R VSB 1/2
STURGIS*       CLOUDY    45  44  97 W13G21    29.77R FOG
THREE RIVERS*  MIX PCPN  46  46 100 W8        29.78R

$$
OHZ001>008-015>018-024>025-171600-
NORTHWEST OHIO

CITY           SKY/WX    TMP DP  RH WIND       PRES   REMARKS
DEFIANCE       MOSUNNY   52  49  89 SW10      29.79R
FINDLAY        CLOUDY    57  52  83 SW13G23   29.79R
TOLEDO EXPRESS CLOUDY    51  51 100 SW10      29.77R
TOLEDO METCALF CLOUDY    52  52 100 S12       29.78S
LIMA           CLOUDY    56 N/A N/A SW15      29.82R

$$
AND FOR LAKE MICHIGAN COASTAL AND OPEN LAKE BUOY OBSERVATIONS

STATION/POSITION TEMP    WIND        PRES    VSBY  WAVE
                 AIR SEA DIR/SP/G                  HT/PER
                 (F)     (DEG/KT/KT) (MB)    (MI)  (FT/S)
CALUMET HARBOR    38     230/  6/ 12 1009.5R
BURNS HARBOR      39     240/ 12/ 15 1011.2R

$$
&&



USA.gov is the U.S. government's official web portal to all federal, state and local government web resources and services.